EW7504 Weather Reports


Display with metric or nautical units.
time (UTC)temp
F
wind
direction
speed
MPH
gust
MPH
rain 1hr
in
rain 24hr
in
rain mn
in
humidity
%
barometer
mb
20190119163602 50 294 0.0 0.0 0.00 0.00 0.00 52 1027.5
20190119160608 48 294 0.0 0.0 0.00 0.00 0.00 55 1027.3
20190119153603 43 231 0.0 0.0 0.00 0.00 0.00 68 1027.1
20190119150606 39 230 0.0 2.0 0.00 0.00 0.00 71 1026.6
20190119143559 38 230 1.0 1.0 0.00 0.00 0.00 72 1026.5
20190119140615 38 230 0.0 0.0 0.00 0.00 0.00 72 1026.5
20190119133613 38 230 0.0 0.0 0.00 0.00 0.00 73 1026.1
20190119130615 39 230 0.0 2.0 0.00 0.00 0.00 73 1026.0
20190119123614 40 230 0.0 0.0 0.00 0.00 0.00 74 1025.7
20190119120616 40 230 0.0 0.0 0.00 0.00 0.00 73 1025.8
20190119113615 42 231 0.0 0.0 0.00 0.00 0.00 73 1025.8
20190119110611 43 231 0.0 0.0 0.00 0.00 0.00 72 1025.9
20190119103604 45 231 0.0 2.0 0.00 0.00 0.00 72 1025.9
20190119100557 45 231 2.0 5.0 0.00 0.00 0.00 74 1025.7
20190119093614 45 232 1.0 1.0 0.00 0.00 0.00 74 1025.6
20190119090606 46 232 2.0 3.0 0.00 0.00 0.00 74 1025.7
20190119083610 47 232 1.0 3.0 0.00 0.00 0.00 74 1025.5
20190119080602 47 232 0.0 4.0 0.00 0.00 0.00 74 1025.4
20190119073600 46 288 3.0 4.0 0.00 0.00 0.00 75 1025.7
20190119070600 47 288 0.0 1.0 0.00 0.00 0.00 74 1025.4
20190119060605 49 288 0.0 2.0 0.00 0.00 0.00 71 1024.8
20190119053559 51 288 2.0 2.0 0.00 0.00 0.00 68 1024.7
20190119050607 53 288 0.0 3.0 0.00 0.00 0.00 66 1024.4
20190119043605 54 289 2.0 4.0 0.00 0.00 0.00 64 1024.1
20190119040559 54 299 7.0 8.0 0.00 0.00 0.00 65 1024.2
20190119033613 54 255 3.0 6.0 0.00 0.00 0.00 64 1024.0
20190119030610 55 241 6.0 8.0 0.00 0.00 0.00 62 1023.4
20190119023601 56 264 5.0 11.0 0.00 0.00 0.00 60 1023.0
20190119020617 57 261 5.0 10.0 0.00 0.00 0.00 57 1022.9
20190119013556 58 274 4.0 8.0 0.00 0.00 0.00 55 1022.5
20190119010610 59 280 5.0 10.0 0.00 0.00 0.00 52 1022.3
20190118223600 65 311 4.0 11.0 0.00 0.00 0.00 40 1021.3
20190118220610 66 348 3.0 12.0 0.00 0.00 0.00 39 1021.4
20190118213609 65 298 4.0 9.0 0.00 0.00 0.00 44 1021.2
20190118210616 65 291 7.0 13.0 0.00 0.00 0.00 45 1021.3
20190118203556 65 308 7.0 13.0 0.00 0.00 0.00 45 1021.6